Content
SEND FEEDBACK

Daily
Averages
Monthly
Summary
United States of America

WILMINGTON, NORTH CAROLINA


Home > North America > United States > North Carolina
Elevation: 72 feet     Latitude: 34 16N     Longitude: 077 54W

WEATHER
 
SELECT A DAY
Number of Records: 213,154;   Date Range: 1/1/95 - 11/21/14
 
SHARE

PRINT THIS DATA

[ ← Previous Day ]
WEATHER ALMANAC - MAY 4, 2013
[ Next Day → ]
[ °C ]   °F
Weather ElementAverageHighLow
Temperature58.5 °F69.1 °F (12:53 pm)51.8 °F (1:22 am)
Dewpoint51.3 °F55.4 °F (5:27 pm)46.4 °F (1:10 am)
Humidity77.8 %89 % (5:53 am)57 % (12:53 pm)
Barometer30.06 in30.12 in (1:10 am)30.02 in (3:53 pm)
Wind Speed13.9 mph19.6 mph (5:53 am)
Wind Gust27.6 mph (5:53 am)
Weather ElementAverage
Visibility9.9 mi
Wind DirectionNE (41.5 °)

Weather ElementTotal
Precipitation---
Heating Degree Days4.6 (Base 65)
Growing Degree Days10.5 (Base 50)
Averaged from 34 records on May 4, 2013
WEATHER CONDITIONS BREAKOUT
WIND DIRECTION BREAKOUT
WEATHER BY HOUR - MAY 4, 2013
[ °C ]   °F
Local TimeTemperatureDewpointHumidityBarometerVisibilityWind DirectionWind SpeedGust SpeedPrecipitationEventsConditions
1:10 AM53.6 °F46.4 °F77 %30.12 in10.0 miNNE (30°)8.1 mphOvercast
1:22 AM51.8 °F46.4 °F82 %30.12 in10.0 miNNE (30°)11.5 mphOvercast
1:53 AM52.0 °F46.9 °F83 %30.11 in10.0 miNNE (20°)8.1 mphMostly Cloudy
2:53 AM52.0 °F46.9 °F83 %30.09 in10.0 miNNE (20°)13.8 mphMostly Cloudy
3:15 AM51.8 °F46.4 °F82 %30.07 in10.0 miNNE (20°)15.0 mphMostly Cloudy
3:45 AM51.8 °F46.4 °F82 %30.07 in10.0 miNNE (30°)11.5 mphMostly Cloudy
3:53 AM52.0 °F48.0 °F86 %30.07 in10.0 miNE (40°)13.8 mphScattered Clouds
4:00 AM51.8 °F48.2 °F88 %30.07 in10.0 miNNE (30°)13.8 mphMostly Cloudy
4:38 AM53.6 °F48.2 °F82 %30.07 in10.0 miNE (40°)12.7 mphMostly Cloudy
4:53 AM53.1 °F48.9 °F86 %30.06 in10.0 miNE (40°)18.4 mph23.0 mphOvercast
5:53 AM53.1 °F50.0 °F89 %30.07 in10.0 miNNE (30°)19.6 mph27.6 mphOvercast
6:53 AM54.0 °F50.0 °F86 %30.07 in10.0 miNE (40°)19.6 mph24.2 mph0.00 inOvercast
7:53 AM55.0 °F51.1 °F86 %30.09 in10.0 miNE (40°)17.3 mph23.0 mphOvercast
8:49 AM57.2 °F51.8 °F82 %30.09 in10.0 miNNE (30°)11.5 mphOvercast
8:53 AM57.0 °F51.1 °F81 %30.09 in10.0 miNNE (30°)11.5 mphOvercast
9:53 AM61.0 °F51.1 °F70 %30.09 in10.0 miNNE (30°)13.8 mphOvercast
10:09 AM60.8 °F51.8 °F72 %30.08 in10.0 miNNE (30°)17.3 mphOvercast
10:53 AM63.0 °F51.1 °F65 %30.08 in10.0 miNE (50°)13.8 mphMostly Cloudy
11:53 AM66.0 °F53.1 °F63 %30.08 in10.0 miNNE (30°)16.1 mphOvercast
12:53 PM69.1 °F53.1 °F57 %30.05 in10.0 miNE (40°)16.1 mphScattered Clouds
1:53 PM69.1 °F54.0 °F58 %30.04 in10.0 miNE (50°)16.1 mph25.3 mphPartly Cloudy
2:53 PM66.9 °F55.0 °F66 %30.03 in10.0 miENE (70°)15.0 mph26.5 mphClear
3:53 PM64.9 °F55.0 °F70 %30.02 in10.0 miENE (70°)16.1 mph25.3 mphOvercast
4:53 PM64.0 °F55.0 °F73 %30.03 in10.0 miENE (70°)15.0 mph19.6 mphOvercast
5:27 PM64.4 °F55.4 °F73 %30.02 in10.0 miENE (60°)11.5 mphOvercast
5:53 PM64.0 °F55.0 °F73 %30.02 in10.0 miNE (50°)13.8 mphOvercast
6:53 PM63.0 °F54.0 °F72 %30.02 in10.0 miENE (60°)12.7 mph20.7 mphOvercast
7:53 PM62.1 °F54.0 °F75 %30.03 in10.0 miENE (60°)16.1 mph24.2 mphOvercast
8:53 PM61.0 °F54.0 °F78 %30.03 in10.0 miNE (50°)16.1 mph23.0 mphOvercast
9:45 PM59.0 °F53.6 °F82 %30.05 in10.0 miNE (50°)12.7 mphOvercast
9:53 PM59.0 °F54.0 °F83 %30.05 in8.0 miNE (50°)10.4 mphOvercast
10:53 PM57.0 °F54.0 °F89 %30.04 in10.0 miNE (40°)11.5 mph0.00 inOvercast
11:28 PM57.2 °F53.6 °F88 %30.03 in10.0 miNE (40°)10.4 mphOvercast
11:53 PM57.0 °F52.0 °F83 %30.03 in10.0 miNE (40°)12.7 mphOvercast
Hourly data recorded from KILM, located miles away from Wilmington, North Carolina







STORIES FROM OUR PARTNERS